Location: Luna
(33.8188°N, 108.9564°W)
Time: 21:48:16
(UTC+00:00)

SL-16 Debris - Visible Passes

Search period start: 29 November 2023 00:00
Search period end: 09 December 2023 00:00
Orbit: 839 x 1139 km, 71.0° (Epoch: 29 November)

Date Brightness Start Highest point End Pass type
(mag) Time Alt. Az. Time Alt. Az. Time Alt. Az.
29 Nov ? 01:35:07 10° N 01:39:06 23° NE 01:39:06 23° NE visible
29 Nov ? 03:21:30 10° NNW 03:24:08 25° NW 03:24:08 25° NW visible
30 Nov ? 02:04:01 10° N 02:09:52 49° NE 02:09:52 49° NE visible
30 Nov ? 03:52:08 10° NW 03:54:57 20° WNW 03:54:57 20° WNW visible
01 Dec ? 00:48:17 10° NNE 00:52:16 16° NE 00:56:22 10° E visible
01 Dec ? 02:33:32 10° NNW 02:40:10 81° WSW 02:41:49 55° S visible
02 Dec ? 01:16:36 10° N 01:22:28 33° ENE 01:28:39 10° SE visible
02 Dec ? 03:03:39 10° NW 03:09:45 39° WSW 03:16:09 10° S visible
03 Dec ? 01:45:46 10° NNW 01:52:23 68° ENE 01:59:24 10° SSE visible
03 Dec ? 03:34:52 10° WNW 03:39:07 18° W 03:43:30 10° SW visible
04 Dec ? 00:29:26 10° N 00:34:27 22° ENE 00:39:40 10° ESE visible
04 Dec ? 02:15:31 10° NNW 02:22:05 60° WSW 02:29:01 10° S visible
05 Dec ? 00:58:12 10° N 01:04:32 44° ENE 01:11:13 10° SE visible
05 Dec ? 02:45:58 10° NW 02:51:35 28° WSW 02:57:26 10° SSW visible
06 Dec ? 01:27:37 10° NNW 01:34:21 89° NE 01:41:29 10° SSE visible
06 Dec ? 03:18:20 10° WNW 03:20:52 12° W 03:23:25 10° WSW visible
07 Dec ? 01:57:38 10° NW 02:03:58 44° WSW 02:10:38 10° S visible
07 Dec ? 13:41:47 10° SE 13:45:16 17° E 13:48:48 10° ENE visible
08 Dec ? 00:39:55 10° NNW 00:46:33 60° ENE 00:53:33 10° SSE visible
08 Dec ? 02:28:32 10° NW 02:33:23 21° W 02:38:22 10° SW visible
